Escondido, California, United States (92025)
Lat: 33.12N, Lon: 117.09W
Wx Zone: CAZ050
Local Info
Past Weather Observations for Yesterday

NOTE: This archive is for the closest National Weather Service station to Escondido. Information may differ from the station used for current weather conditions.

Time Weather Temperature Dewpoint Humidity Pressure Winds Precip Visibility
23:53
Clear
57°F / 14°C 50°F / 10°C 77% 29.95 in
(1014 mb)
SE 3.5 mph
(SE 6 kph)
- 10SM
22:53
Clear
57°F / 14°C 50°F / 10°C 77% 29.95 in
(1014 mb)
Calm - 10SM
21:53
Clear
59°F / 15°C 52°F / 11°C 77% 29.95 in
(1014 mb)
SE 3.5 mph
(SE 6 kph)
- 10SM
20:53
Clear
61°F / 16°C 52°F / 11°C 72% 29.95 in
(1014 mb)
S 3.5 mph
(S 6 kph)
- 10SM
19:53
Partly Cloudy
61°F / 16°C 52°F / 11°C 72% 29.95 in
(1014 mb)
SSW 5.8 mph
(SSW 9 kph)
- 10SM
19:50
Partly Cloudy
61°F / 16°C 52°F / 11°C 72% 29.95 in
(1014 mb)
SSW 6.9 mph
(SSW 11 kph)
- 10SM
18:53
Overcast
61°F / 16°C 54°F / 12°C 77% 29.92 in
(1013 mb)
SSW 6.9 mph
(SSW 11 kph)
- 10SM
17:53
Overcast
61°F / 16°C 52°F / 11°C 72% 29.92 in
(1013 mb)
Variable 5.8 mph
(Variable 9 kph)
- 10SM
16:53
Mostly Cloudy
64°F / 18°C 54°F / 12°C 68% 29.92 in
(1013 mb)
SSW 10.4 mph
(SSW 17 kph)
- 10SM
15:53
Mostly Cloudy
64°F / 18°C 52°F / 11°C 64% 29.92 in
(1013 mb)
SSW 10.4 mph
(SSW 17 kph)
- 10SM
15:43
Mostly Cloudy
63°F / 17°C 54°F / 12°C 73% 29.92 in
(1013 mb)
SSW 10.4 mph
(SSW 17 kph)
- 10SM
14:53
Partly Cloudy
64°F / 18°C 52°F / 11°C 64% 29.92 in
(1013 mb)
SSW 9.2 mph
(SSW 15 kph)
- 10SM
13:53
Clear
64°F / 18°C 52°F / 11°C 64% 29.95 in
(1014 mb)
SSW 11.5 mph
(SSW 19 kph)
- 10SM
12:53
Clear
66°F / 19°C 52°F / 11°C 60% 29.95 in
(1014 mb)
SSW 15 mph
(SSW 24 kph)
- 10SM
11:53
Clear
66°F / 19°C 52°F / 11°C 60% 29.95 in
(1014 mb)
SW 6.9 mph
(SW 11 kph)
- 10SM
11:21
Partly Cloudy
64°F / 18°C 52°F / 11°C 64% 29.98 in
(1015 mb)
SSW 5.8 mph
(SSW 9 kph)
- 10SM
10:53
Overcast
64°F / 18°C 52°F / 11°C 64% 29.98 in
(1015 mb)
SSW 6.9 mph
(SSW 11 kph)
- 10SM
09:53
Overcast
63°F / 17°C 52°F / 11°C 68% 30.01 in
(1016 mb)
SSW 3.5 mph
(SSW 6 kph)
- 10SM
08:53
Overcast
61°F / 16°C 52°F / 11°C 72% 30.01 in
(1016 mb)
Variable 3.5 mph
(Variable 6 kph)
- 10SM
07:53
Overcast
61°F / 16°C 52°F / 11°C 72% 29.98 in
(1015 mb)
SSE 3.5 mph
(SSE 6 kph)
- 10SM
06:53
Overcast
59°F / 15°C 52°F / 11°C 77% 29.98 in
(1015 mb)
SSE 4.6 mph
(SSE 7 kph)
- 9SM
05:53
Overcast
59°F / 15°C 54°F / 12°C 82% 29.98 in
(1015 mb)
Calm - 7SM
04:53
Overcast
59°F / 15°C 54°F / 12°C 82% 29.95 in
(1014 mb)
SW 4.6 mph
(SW 7 kph)
- 8SM
03:53
Overcast
61°F / 16°C 55°F / 13°C 83% 29.95 in
(1014 mb)
SW 3.5 mph
(SW 6 kph)
- 8SM
02:53
Overcast
61°F / 16°C 54°F / 12°C 77% 29.95 in
(1014 mb)
Calm - 8SM
01:53
Overcast
59°F / 15°C 54°F / 12°C 82% 29.95 in
(1014 mb)
E 4.6 mph
(E 7 kph)
- 8SM
00:53
Overcast
59°F / 15°C 54°F / 12°C 82% 29.98 in
(1015 mb)
Calm - 9SM
Time Weather Temperature Dewpoint Humidity Pressure Winds Precip Visibility


Weather for websites

WeatherForYou.com, LLC is not responsible for any damages or problems caused by this service. Current weather conditions are obtained from the closest station including government and personal stations which may have varying degrees of accuracy. Weather forecasts are derived from the NOAA NDFD. Like all things, this site belongs to Jesus Christ... He just trusts me to maintain it. If you have any questions or comments email webmaster@weatherforyou.com

Copyright © 2014, WeatherForYou.com LLC. All rights reserved.